TimeEST,TemperatureF,Dew PointF,Humidity,Sea Level PressureIn,VisibilityMPH,Wind Direction,Wind SpeedMPH,Gust SpeedMPH,PrecipitationIn,Events,Conditions,WindDirDegrees,DateUTC
12:00 AM,24.1,21.9,91,30.05,-9999.0,Calm,Calm,-,N/A,Snow,Light Snow,0,2013-02-03 05:00:00
12:08 AM,24.8,21.2,86,30.05,-9999.0,Calm,Calm,-,N/A,Snow,Light Snow,0,2013-02-03 05:08:00
1:00 AM,24.1,21.9,91,30.02,-9999.0,Calm,Calm,-,N/A,Snow,Light Snow,0,2013-02-03 06:00:00
2:00 AM,24.1,21.9,91,29.99,-9999.0,ENE,3.5,-,N/A,Snow,Light Snow,70,2013-02-03 07:00:00
3:00 AM,24.1,21.9,91,29.97,-9999.0,Calm,Calm,-,N/A,Snow,Light Snow,0,2013-02-03 08:00:00
3:17 AM,23.0,21.2,93,29.96,-9999.0,Calm,Calm,-,N/A,Snow,Light Snow,0,2013-02-03 08:17:00
4:00 AM,21.9,21.0,96,29.94,-9999.0,Calm,Calm,-,N/A,,Mostly Cloudy,0,2013-02-03 09:00:00
4:24 AM,19.4,19.4,100,29.93,-9999.0,Calm,Calm,-,N/A,,Partly Cloudy,0,2013-02-03 09:24:00
5:00 AM,17.1,16.0,96,29.93,-9999.0,Calm,Calm,-,N/A,,Clear,0,2013-02-03 10:00:00
6:00 AM,15.1,12.9,91,29.94,-9999.0,Calm,Calm,-,N/A,,Partly Cloudy,0,2013-02-03 11:00:00
6:12 AM,21.2,17.6,86,29.94,-9999.0,North,3.5,-,N/A,,Mostly Cloudy,10,2013-02-03 11:12:00
7:00 AM,21.9,19.9,92,29.95,-9999.0,Calm,Calm,-,N/A,,Overcast,0,2013-02-03 12:00:00
7:07 AM,21.2,19.4,93,29.95,-9999.0,Calm,Calm,-,N/A,,Overcast,0,2013-02-03 12:07:00
7:28 AM,21.2,19.4,93,29.94,-9999.0,Calm,Calm,-,N/A,,Overcast,0,2013-02-03 12:28:00
8:00 AM,23.0,19.9,88,29.94,-9999.0,NW,3.5,-,N/A,,Unknown,320,2013-02-03 13:00:00
8:21 AM,24.8,23.0,93,29.94,-9999.0,Calm,Calm,-,N/A,,Overcast,0,2013-02-03 13:21:00
9:00 AM,26.1,21.9,84,29.94,-9999.0,North,4.6,-,N/A,,Overcast,360,2013-02-03 14:00:00
10:00 AM,27.0,21.0,78,29.92,-9999.0,NW,5.8,-,N/A,,Overcast,320,2013-02-03 15:00:00
10:19 AM,26.6,21.2,80,29.92,-9999.0,Variable,3.5,-,N/A,,Overcast,0,2013-02-03 15:19:00
10:56 AM,28.4,21.2,74,29.90,-9999.0,Variable,4.6,-,N/A,,Mostly Cloudy,0,2013-02-03 15:56:00
11:00 AM,28.9,21.9,75,29.90,-9999.0,North,4.6,-,N/A,,Mostly Cloudy,350,2013-02-03 16:00:00
12:00 PM,28.9,23.0,78,29.86,-9999.0,Calm,Calm,-,N/A,,Overcast,0,2013-02-03 17:00:00
1:00 PM,30.9,21.9,69,29.84,-9999.0,Calm,Calm,-,N/A,,Mostly Cloudy,0,2013-02-03 18:00:00
1:08 PM,-9999,-9999,N/A,-9999,-9999.0,North,-9999.0,-,N/A,,Unknown,0,2013-02-03 18:08:00
2:00 PM,30.9,21.9,69,29.81,-9999.0,WNW,6.9,-,N/A,,Overcast,300,2013-02-03 19:00:00
2:40 PM,30.2,21.2,69,29.80,-9999.0,WNW,6.9,-,N/A,,Scattered Clouds,300,2013-02-03 19:40:00
3:00 PM,30.9,21.9,69,29.80,-9999.0,WNW,8.1,-,N/A,,Partly Cloudy,300,2013-02-03 20:00:00
3:29 PM,32.0,21.2,64,29.80,-9999.0,WNW,9.2,-,N/A,,Mostly Cloudy,290,2013-02-03 20:29:00
3:41 PM,30.2,21.2,69,29.80,-9999.0,WNW,10.4,-,N/A,,Scattered Clouds,290,2013-02-03 20:41:00
4:00 PM,30.0,21.0,69,29.81,-9999.0,WNW,8.1,-,N/A,,Scattered Clouds,290,2013-02-03 21:00:00
7:00 PM,25.0,19.0,78,29.83,-9999.0,Calm,Calm,-,N/A,,Clear,0,2013-02-04 00:00:00
8:00 PM,21.0,18.0,88,29.83,-9999.0,Calm,Calm,-,N/A,,Clear,0,2013-02-04 01:00:00
9:00 PM,21.0,18.0,88,29.83,-9999.0,Calm,Calm,-,N/A,,Scattered Clouds,0,2013-02-04 02:00:00
10:00 PM,21.0,17.1,85,29.83,-9999.0,Calm,Calm,-,N/A,,Overcast,0,2013-02-04 03:00:00
11:00 PM,25.0,21.0,85,29.83,-9999.0,Calm,Calm,-,0.00,Snow,Light Snow,0,2013-02-04 04:00:00
11:12 PM,24.8,21.2,86,29.83,-9999.0,Calm,Calm,-,0.00,Snow,Snow,0,2013-02-04 04:12:00
11:42 PM,24.8,21.2,86,29.84,-9999.0,West,4.6,-,0.00,Snow,Snow,270,2013-02-04 04:42:00